| time (UTC) | temp C | wind direction | speed KPH | gust KPH | rain 1hr cm | rain 24hr cm | rain mn cm | humidity % | barometer mb |
| 20260508210134 | 19 | 96 | 9.7 | 24.1 | 0.00 | 0.00 | 0.00 | 55 | 1013.8 |
| 20260508205534 | 19 | 96 | 9.7 | 24.1 | 0.00 | 0.00 | 0.00 | 56 | 1013.9 |
| 20260508205034 | 19 | 96 | 9.7 | 24.1 | 0.00 | 0.00 | 0.00 | 54 | 1013.9 |
| 20260508204536 | 19 | 96 | 8.0 | 14.5 | 0.00 | 0.00 | 0.00 | 55 | 1013.9 |
| 20260508204032 | 19 | 96 | 8.0 | 19.3 | 0.00 | 0.00 | 0.00 | 55 | 1014.0 |
| 20260508203532 | 19 | 96 | 11.3 | 19.3 | 0.00 | 0.00 | 0.00 | 55 | 1014.0 |
| 20260508203032 | 18 | 96 | 6.4 | 20.9 | 0.00 | 0.00 | 0.00 | 55 | 1013.9 |
| 20260508202532 | 18 | 96 | 12.9 | 20.9 | 0.00 | 0.00 | 0.00 | 55 | 1013.9 |
| 20260508202032 | 18 | 96 | 8.0 | 16.1 | 0.00 | 0.00 | 0.00 | 55 | 1014.1 |
| 20260508201533 | 19 | 96 | 9.7 | 0.0 | 0.00 | 0.00 | 0.00 | 54 | 1014.3 |
| 20260508201033 | 19 | 96 | 6.4 | 17.7 | 0.00 | 0.00 | 0.00 | 54 | 1014.4 |
| 20260508200532 | 19 | 96 | 9.7 | 24.1 | 0.00 | 0.00 | 0.00 | 54 | 1014.3 |
| 20260508200132 | 19 | 96 | 12.9 | 20.9 | 0.00 | 0.00 | 0.00 | 53 | 1014.5 |
| 20260508195533 | 19 | 96 | 11.3 | 19.3 | 0.00 | 0.00 | 0.00 | 53 | 1014.5 |
| 20260508195033 | 19 | 96 | 6.4 | 19.3 | 0.00 | 0.00 | 0.00 | 53 | 1014.5 |
| 20260508194533 | 19 | 96 | 8.0 | 25.7 | 0.00 | 0.00 | 0.00 | 52 | 1014.7 |
| 20260508194033 | 19 | 96 | 14.5 | 25.7 | 0.00 | 0.00 | 0.00 | 51 | 1014.9 |
| 20260508193532 | 19 | 96 | 17.7 | 25.7 | 0.00 | 0.00 | 0.00 | 53 | 1014.7 |
| 20260508193101 | 19 | 96 | 9.7 | 25.7 | 0.00 | 0.00 | 0.00 | 51 | 1015.0 |
| 20260508192532 | 20 | 96 | 8.0 | 20.9 | 0.00 | 0.00 | 0.00 | 51 | 1014.9 |
| 20260508192032 | 19 | 96 | 12.9 | 20.9 | 0.00 | 0.00 | 0.00 | 51 | 1015.0 |
| 20260508191532 | 19 | 96 | 11.3 | 22.5 | 0.00 | 0.00 | 0.00 | 51 | 1015.1 |
| 20260508191031 | 19 | 96 | 12.9 | 27.4 | 0.00 | 0.00 | 0.00 | 50 | 1015.2 |
| 20260508190532 | 19 | 96 | 12.9 | 27.4 | 0.00 | 0.00 | 0.00 | 50 | 1015.3 |
| 20260508190135 | 19 | 96 | 8.0 | 24.1 | 0.00 | 0.00 | 0.00 | 50 | 1015.3 |
| 20260508185529 | 19 | 96 | 12.9 | 24.1 | 0.00 | 0.00 | 0.00 | 49 | 1015.3 |
| 20260508185029 | 19 | 96 | 6.4 | 25.7 | 0.00 | 0.00 | 0.00 | 50 | 1015.4 |
| 20260508184528 | 18 | 96 | 8.0 | 19.3 | 0.00 | 0.00 | 0.00 | 51 | 1015.4 |
| 20260508184027 | 18 | 96 | 4.8 | 25.7 | 0.00 | 0.00 | 0.00 | 51 | 1015.4 |
| 20260508183528 | 18 | 96 | 9.7 | 25.7 | 0.00 | 0.00 | 0.00 | 50 | 1015.6 |
| 20260508183027 | 19 | 96 | 6.4 | 19.3 | 0.00 | 0.00 | 0.00 | 49 | 1015.6 |
| 20260508182527 | 19 | 96 | 8.0 | 17.7 | 0.00 | 0.00 | 0.00 | 49 | 1015.7 |
| 20260508182025 | 18 | 96 | 4.8 | 22.5 | 0.00 | 0.00 | 0.00 | 50 | 1015.6 |
| 20260508181526 | 18 | 96 | 14.5 | 24.1 | 0.00 | 0.00 | 0.00 | 48 | 1015.7 |
| 20260508181031 | 18 | 96 | 14.5 | 24.1 | 0.00 | 0.00 | 0.00 | 49 | 1015.9 |
| 20260508180526 | 18 | 96 | 14.5 | 24.1 | 0.00 | 0.00 | 0.00 | 48 | 1016.0 |
| 20260508180128 | 18 | 96 | 8.0 | 24.1 | 0.00 | 0.00 | 0.00 | 44 | 1016.3 |
| 20260508175526 | 18 | 96 | 12.9 | 24.1 | 0.00 | 0.00 | 0.00 | 43 | 1016.4 |
| 20260508175028 | 18 | 96 | 9.7 | 22.5 | 0.00 | 0.00 | 0.00 | 42 | 1016.2 |
| 20260508174535 | 18 | 96 | 6.4 | 16.1 | 0.00 | 0.00 | 0.00 | 43 | 1016.1 |
| 20260508174029 | 18 | 96 | 9.7 | 16.1 | 0.00 | 0.00 | 0.00 | 45 | 1016.2 |
| 20260508173524 | 18 | 96 | 6.4 | 19.3 | 0.00 | 0.00 | 0.00 | 46 | 1016.4 |
| 20260508173022 | 18 | 96 | 9.7 | 22.5 | 0.00 | 0.00 | 0.00 | 46 | 1016.6 |
| 20260508172522 | 18 | 96 | 11.3 | 22.5 | 0.00 | 0.00 | 0.00 | 50 | 1016.6 |
| 20260508172022 | 18 | 96 | 8.0 | 20.9 | 0.00 | 0.00 | 0.00 | 50 | 1016.7 |
| 20260508171629 | 18 | 96 | 12.9 | 20.9 | 0.00 | 0.00 | 0.00 | 50 | 1016.7 |
| 20260508171021 | 18 | 96 | 8.0 | 22.5 | 0.00 | 0.00 | 0.00 | 50 | 1016.7 |
| 20260508170521 | 18 | 96 | 12.9 | 22.5 | 0.00 | 0.00 | 0.00 | 50 | 1016.9 |
| 20260508170120 | 17 | 96 | 9.7 | 19.3 | 0.00 | 0.00 | 0.00 | 53 | 1017.0 |
| 20260508165520 | 18 | 96 | 9.7 | 19.3 | 0.00 | 0.00 | 0.00 | 52 | 1017.0 |
| 20260508165020 | 18 | 96 | 9.7 | 19.3 | 0.00 | 0.00 | 0.00 | 52 | 1017.1 |
| 20260508164525 | 17 | 96 | 9.7 | 20.9 | 0.00 | 0.00 | 0.00 | 50 | 1017.2 |
| 20260508164020 | 17 | 96 | 12.9 | 20.9 | 0.00 | 0.00 | 0.00 | 52 | 1017.2 |
| 20260508163518 | 17 | 96 | 8.0 | 22.5 | 0.00 | 0.00 | 0.00 | 51 | 1017.2 |
| 20260508163019 | 18 | 96 | 14.5 | 22.5 | 0.00 | 0.00 | 0.00 | 51 | 1017.3 |
| 20260508162518 | 17 | 96 | 3.2 | 17.7 | 0.00 | 0.00 | 0.00 | 52 | 1017.3 |
| 20260508162018 | 17 | 96 | 6.4 | 20.9 | 0.00 | 0.00 | 0.00 | 52 | 1017.3 |
| 20260508161535 | 17 | 96 | 9.7 | 20.9 | 0.00 | 0.00 | 0.00 | 53 | 1017.4 |
| 20260508161018 | 17 | 96 | 3.2 | 17.7 | 0.00 | 0.00 | 0.00 | 53 | 1017.6 |
| 20260508160517 | 17 | 96 | 4.8 | 12.9 | 0.00 | 0.00 | 0.00 | 53 | 1017.6 |
| 20260508160117 | 17 | 96 | 3.2 | 16.1 | 0.00 | 0.00 | 0.00 | 52 | 1017.7 |
| 20260508155517 | 17 | 96 | 4.8 | 16.1 | 0.00 | 0.00 | 0.00 | 52 | 1017.7 |
| 20260508155015 | 17 | 96 | 9.7 | 17.7 | 0.00 | 0.00 | 0.00 | 53 | 1017.8 |
| 20260508154515 | 17 | 96 | 6.4 | 17.7 | 0.00 | 0.00 | 0.00 | 55 | 1017.9 |
| 20260508154015 | 17 | 96 | 8.0 | 16.1 | 0.00 | 0.00 | 0.00 | 55 | 1017.8 |
| 20260508153514 | 17 | 96 | 0.0 | 16.1 | 0.00 | 0.00 | 0.00 | 56 | 1017.9 |
| 20260508153014 | 16 | 96 | 6.4 | 16.1 | 0.00 | 0.00 | 0.00 | 55 | 1018.0 |
| 20260508152512 | 16 | 96 | 8.0 | 14.5 | 0.00 | 0.00 | 0.00 | 56 | 1017.9 |
| 20260508152016 | 16 | 96 | 4.8 | 12.9 | 0.00 | 0.00 | 0.00 | 56 | 1018.0 |
| 20260508151524 | 16 | 96 | 3.2 | 12.9 | 0.00 | 0.00 | 0.00 | 57 | 1017.9 |
| 20260508151017 | 16 | 96 | 8.0 | 12.9 | 0.00 | 0.00 | 0.00 | 58 | 1017.8 |
| 20260508150514 | 16 | 96 | 1.6 | 11.3 | 0.00 | 0.00 | 0.00 | 57 | 1017.9 |
| 20260508150110 | 16 | 96 | 6.4 | 12.9 | 0.00 | 0.00 | 0.00 | 59 | 1018.1 |
| 20260508145511 | 16 | 96 | 4.8 | 12.9 | 0.00 | 0.00 | 0.00 | 59 | 1018.1 |
| 20260508145014 | 16 | 96 | 8.0 | 16.1 | 0.00 | 0.00 | 0.00 | 59 | 1018.2 |
| 20260508144509 | 15 | 96 | 9.7 | 16.1 | 0.00 | 0.00 | 0.00 | 60 | 1018.1 |
| 20260508144008 | 15 | 96 | 4.8 | 16.1 | 0.00 | 0.00 | 0.00 | 61 | 1018.1 |
| 20260508143509 | 15 | 96 | 3.2 | 12.9 | 0.00 | 0.00 | 0.00 | 61 | 1018.2 |
| 20260508143007 | 15 | 96 | 4.8 | 12.9 | 0.00 | 0.00 | 0.00 | 61 | 1018.1 |
| 20260508142512 | 15 | 96 | 4.8 | 12.9 | 0.00 | 0.00 | 0.00 | 60 | 1018.3 |
| 20260508142007 | 15 | 96 | 9.7 | 12.9 | 0.00 | 0.00 | 0.00 | 59 | 1018.2 |
| 20260508141510 | 15 | 96 | 0.0 | 6.4 | 0.00 | 0.00 | 0.00 | 59 | 1018.2 |
| 20260508141010 | 15 | 96 | 0.0 | 3.2 | 0.00 | 0.00 | 0.00 | 57 | 1018.4 |
| 20260508140510 | 15 | 96 | 0.0 | 11.3 | 0.00 | 0.00 | 0.00 | 59 | 1018.4 |
| 20260508140117 | 15 | 96 | 0.0 | 9.7 | 0.00 | 0.00 | 0.00 | 60 | 1018.3 |
| 20260508135507 | 15 | 96 | 1.6 | 9.7 | 0.00 | 0.00 | 0.00 | 60 | 1018.2 |
| 20260508135006 | 14 | 96 | 3.2 | 9.7 | 0.00 | 0.00 | 0.00 | 60 | 1018.3 |
| 20260508134506 | 14 | 96 | 0.0 | 9.7 | 0.00 | 0.00 | 0.00 | 61 | 1018.3 |
| 20260508134005 | 14 | 96 | 1.6 | 9.7 | 0.00 | 0.00 | 0.00 | 60 | 1018.4 |
| 20260508133504 | 14 | 96 | 0.0 | 4.8 | 0.00 | 0.00 | 0.00 | 62 | 1018.3 |
| 20260508133003 | 13 | 96 | 1.6 | 11.3 | 0.00 | 0.00 | 0.00 | 62 | 1018.4 |
| 20260508132503 | 13 | 96 | 1.6 | 11.3 | 0.00 | 0.00 | 0.00 | 63 | 1018.3 |
| 20260508132102 | 13 | 96 | 1.6 | 4.8 | 0.00 | 0.00 | 0.00 | 63 | 1018.3 |
| 20260508131501 | 13 | 96 | 0.0 | 3.2 | 0.00 | 0.00 | 0.00 | 65 | 1018.3 |
| 20260508131102 | 13 | 96 | 0.0 | 1.6 | 0.00 | 0.00 | 0.00 | 67 | 1018.3 |
| 20260508130559 | 12 | 96 | 0.0 | 3.2 | 0.00 | 0.00 | 0.00 | 67 | 1018.2 |
| 20260508125558 | 12 | 96 | 1.6 | 6.4 | 0.00 | 0.00 | 0.00 | 70 | 1018.1 |
| 20260508125057 | 12 | 96 | 0.0 | 4.8 | 0.00 | 0.00 | 0.00 | 70 | 1018.1 |
| 20260508124555 | 11 | 96 | 0.0 | 1.6 | 0.00 | 0.00 | 0.00 | 73 | 1018.0 |
| 20260508124055 | 11 | 96 | 0.0 | 3.2 | 0.00 | 0.00 | 0.00 | 74 | 1018.0 |
| 20260508123553 | 11 | 96 | 0.0 | 3.2 | 0.00 | 0.00 | 0.00 | 76 | 1018.0 |
| 20260508123052 | 11 | 96 | 0.0 | 3.2 | 0.00 | 0.00 | 0.00 | 80 | 1017.9 |
| 20260508122549 | 10 | 96 | 0.0 | 1.6 | 0.00 | 0.00 | 0.00 | 81 | 1018.0 |
| 20260508122049 | 10 | 96 | 0.0 | 3.2 | 0.00 | 0.00 | 0.00 | 82 | 1017.9 |
| 20260508121554 | 10 | 96 | 0.0 | 3.2 | 0.00 | 0.30 | 0.00 | 82 | 1017.9 |
| 20260508121048 | 10 | 96 | 0.0 | 1.6 | 0.00 | 0.30 | 0.00 | 83 | 1017.9 |
| 20260508120549 | 9 | 96 | 0.0 | 1.6 | 0.00 | 0.30 | 0.00 | 83 | 1017.7 |
| 20260508120052 | 9 | 96 | 0.0 | 3.2 | 0.00 | 0.30 | 0.00 | 84 | 1017.7 |
| 20260508115541 | 9 | 96 | 0.0 | 3.2 | 0.00 | 0.30 | 0.00 | 85 | 1017.6 |
| 20260508115039 | 8 | 96 | 0.0 | 3.2 | 0.00 | 0.30 | 0.00 | 86 | 1017.6 |
| 20260508114539 | 8 | 96 | 0.0 | 3.2 | 0.00 | 0.30 | 0.00 | 86 | 1017.5 |
| 20260508114038 | 8 | 96 | 0.0 | 0.0 | 0.00 | 0.30 | 0.00 | 87 | 1017.4 |
| 20260508113540 | 8 | 96 | 0.0 | 0.0 | 0.00 | 0.30 | 0.00 | 87 | 1017.3 |
| 20260508113046 | 8 | 96 | 0.0 | 0.0 | 0.00 | 0.30 | 0.00 | 89 | 1017.3 |
| 20260508112536 | 8 | 96 | 0.0 | 0.0 | 0.00 | 0.30 | 0.00 | 89 | 1017.2 |
| 20260508112036 | 7 | 96 | 0.0 | 0.0 | 0.00 | 0.30 | 0.00 | 89 | 1017.1 |
| 20260508111536 | 7 | 96 | 0.0 | 0.0 | 0.00 | 0.43 | 0.00 | 90 | 1017.1 |
| 20260508111035 | 7 | 96 | 0.0 | 0.0 | 0.00 | 0.43 | 0.00 | 90 | 1016.9 |
| 20260508110535 | 7 | 96 | 0.0 | 4.8 | 0.00 | 0.43 | 0.00 | 91 | 1016.8 |
| 20260508110033 | 7 | 96 | 1.6 | 4.8 | 0.00 | 0.43 | 0.00 | 90 | 1016.8 |
| 20260508105534 | 7 | 96 | 0.0 | 0.0 | 0.00 | 0.43 | 0.00 | 90 | 1016.7 |
| 20260508105035 | 7 | 96 | 0.0 | 0.0 | 0.00 | 0.43 | 0.00 | 90 | 1016.7 |
| 20260508104532 | 7 | 96 | 0.0 | 0.0 | 0.00 | 0.43 | 0.00 | 90 | 1016.6 |
| 20260508104031 | 7 | 96 | 0.0 | 0.0 | 0.00 | 0.43 | 0.00 | 90 | 1016.5 |
| 20260508103530 | 7 | 96 | 0.0 | 0.0 | 0.00 | 0.43 | 0.00 | 90 | 1016.4 |
| 20260508103029 | 7 | 96 | 0.0 | 0.0 | 0.00 | 0.43 | 0.00 | 89 | 1016.2 |
| 20260508102530 | 7 | 96 | 0.0 | 0.0 | 0.00 | 0.43 | 0.00 | 89 | 1016.2 |
| 20260508102029 | 7 | 96 | 0.0 | 0.0 | 0.00 | 0.43 | 0.00 | 89 | 1016.1 |
| 20260508101528 | 7 | 96 | 0.0 | 0.0 | 0.00 | 0.43 | 0.00 | 88 | 1015.9 |
| 20260508101027 | 8 | 96 | 0.0 | 0.0 | 0.00 | 0.43 | 0.00 | 88 | 1015.8 |
| 20260508100526 | 8 | 96 | 0.0 | 0.0 | 0.00 | 0.43 | 0.00 | 87 | 1015.7 |
| 20260508100025 | 8 | 96 | 0.0 | 0.0 | 0.00 | 0.43 | 0.00 | 87 | 1015.7 |
| 20260508095527 | 8 | 96 | 0.0 | 0.0 | 0.00 | 0.43 | 0.00 | 86 | 1015.6 |
| 20260508095024 | 8 | 96 | 0.0 | 0.0 | 0.00 | 0.43 | 0.00 | 86 | 1015.6 |
| 20260508094522 | 8 | 96 | 0.0 | 0.0 | 0.00 | 0.43 | 0.00 | 86 | 1015.5 |
| 20260508094021 | 9 | 96 | 0.0 | 1.6 | 0.00 | 0.43 | 0.00 | 85 | 1015.5 |
| 20260508093521 | 9 | 96 | 0.0 | 3.2 | 0.00 | 0.43 | 0.00 | 84 | 1015.5 |
| 20260508093021 | 9 | 96 | 0.0 | 1.6 | 0.00 | 0.43 | 0.00 | 85 | 1015.5 |
| 20260508092519 | 9 | 96 | 0.0 | 1.6 | 0.00 | 0.43 | 0.00 | 85 | 1015.5 |
| 20260508092020 | 9 | 96 | 0.0 | 3.2 | 0.00 | 0.43 | 0.00 | 86 | 1015.3 |
| 20260508091529 | 9 | 96 | 0.0 | 3.2 | 0.00 | 0.43 | 0.00 | 86 | 1015.3 |
| 20260508091019 | 9 | 96 | 0.0 | 3.2 | 0.00 | 0.43 | 0.00 | 85 | 1015.3 |
| 20260508090520 | 10 | 96 | 0.0 | 3.2 | 0.00 | 0.43 | 0.00 | 84 | 1015.3 |
| 20260508090019 | 10 | 96 | 0.0 | 1.6 | 0.00 | 0.43 | 0.00 | 84 | 1015.2 |
| 20260508085518 | 10 | 96 | 0.0 | 1.6 | 0.00 | 0.43 | 0.00 | 84 | 1015.2 |
| 20260508085017 | 10 | 96 | 0.0 | 1.6 | 0.00 | 0.43 | 0.00 | 84 | 1015.2 |
| 20260508084517 | 9 | 96 | 0.0 | 1.6 | 0.00 | 0.43 | 0.00 | 86 | 1015.2 |
| 20260508084022 | 9 | 96 | 0.0 | 1.6 | 0.00 | 0.43 | 0.00 | 87 | 1015.2 |
| 20260508083515 | 9 | 96 | 0.0 | 0.0 | 0.00 | 0.43 | 0.00 | 87 | 1015.1 |
| 20260508083028 | 9 | 96 | 0.0 | 0.0 | 0.00 | 0.43 | 0.00 | 87 | 1015.1 |
| 20260508082516 | 9 | 96 | 0.0 | 0.0 | 0.00 | 0.43 | 0.00 | 87 | 1015.1 |
| 20260508082016 | 9 | 96 | 0.0 | 0.0 | 0.00 | 0.43 | 0.00 | 86 | 1015.1 |
| 20260508081515 | 9 | 96 | 0.0 | 0.0 | 0.00 | 0.43 | 0.00 | 87 | 1014.9 |
| 20260508081014 | 9 | 96 | 0.0 | 0.0 | 0.00 | 0.43 | 0.00 | 87 | 1014.9 |
| 20260508080514 | 9 | 96 | 0.0 | 0.0 | 0.00 | 0.43 | 0.00 | 87 | 1015.0 |
| 20260508080014 | 9 | 96 | 0.0 | 0.0 | 0.00 | 0.43 | 0.00 | 87 | 1014.9 |
| 20260508075514 | 9 | 96 | 0.0 | 0.0 | 0.00 | 0.43 | 0.00 | 87 | 1014.9 |
| 20260508075021 | 9 | 96 | 0.0 | 0.0 | 0.00 | 0.43 | 0.00 | 86 | 1014.9 |
| 20260508074512 | 9 | 96 | 0.0 | 3.2 | 0.00 | 0.43 | 0.00 | 86 | 1014.8 |
| 20260508074012 | 9 | 96 | 0.0 | 4.8 | 0.00 | 0.43 | 0.00 | 87 | 1014.7 |
| 20260508073514 | 9 | 96 | 0.0 | 3.2 | 0.00 | 0.43 | 0.00 | 88 | 1014.6 |
| 20260508073011 | 9 | 96 | 0.0 | 3.2 | 0.00 | 0.43 | 0.00 | 87 | 1014.7 |
| 20260508072515 | 9 | 96 | 0.0 | 3.2 | 0.00 | 0.43 | 0.00 | 87 | 1014.7 |
| 20260508072011 | 9 | 96 | 0.0 | 3.2 | 0.00 | 0.43 | 0.00 | 87 | 1014.5 |
| 20260508071512 | 9 | 96 | 0.0 | 1.6 | 0.00 | 0.43 | 0.00 | 87 | 1014.7 |
| 20260508071012 | 9 | 96 | 0.0 | 1.6 | 0.00 | 0.43 | 0.00 | 87 | 1014.6 |
| 20260508070510 | 9 | 96 | 0.0 | 1.6 | 0.00 | 0.43 | 0.00 | 87 | 1014.5 |
| 20260508070011 | 9 | 96 | 0.0 | 1.6 | 0.00 | 0.43 | 0.00 | 87 | 1014.5 |
| 20260508065513 | 9 | 96 | 0.0 | 1.6 | 0.00 | 0.43 | 0.00 | 87 | 1014.4 |
| 20260508065008 | 9 | 96 | 0.0 | 1.6 | 0.00 | 0.43 | 0.00 | 87 | 1014.4 |
| 20260508064515 | 9 | 96 | 0.0 | 1.6 | 0.00 | 0.43 | 0.00 | 87 | 1014.5 |
| 20260508064008 | 9 | 96 | 0.0 | 0.0 | 0.00 | 0.43 | 0.00 | 87 | 1014.3 |
| 20260508063510 | 9 | 96 | 0.0 | 0.0 | 0.00 | 0.43 | 0.00 | 86 | 1014.3 |
| 20260508063006 | 10 | 96 | 0.0 | 0.0 | 0.00 | 0.43 | 0.00 | 86 | 1014.3 |
| 20260508062511 | 10 | 96 | 0.0 | 0.0 | 0.00 | 0.43 | 0.00 | 86 | 1014.3 |
| 20260508062007 | 10 | 96 | 0.0 | 0.0 | 0.00 | 0.43 | 0.00 | 85 | 1014.2 |
| 20260508061505 | 10 | 96 | 0.0 | 1.6 | 0.00 | 0.53 | 0.00 | 85 | 1014.1 |
| 20260508061005 | 10 | 96 | 0.0 | 1.6 | 0.00 | 0.53 | 0.00 | 85 | 1014.1 |
| 20260508060505 | 10 | 96 | 0.0 | 0.0 | 0.00 | 0.53 | 0.00 | 85 | 1014.1 |
| 20260508060005 | 10 | 96 | 0.0 | 1.6 | 0.00 | 0.53 | 0.00 | 84 | 1014.1 |
| 20260508055504 | 10 | 96 | 0.0 | 1.6 | 0.00 | 0.53 | 0.00 | 84 | 1014.1 |
| 20260508055004 | 10 | 96 | 0.0 | 1.6 | 0.00 | 0.53 | 0.00 | 84 | 1014.1 |
| 20260508054503 | 10 | 96 | 0.0 | 1.6 | 0.00 | 0.53 | 0.00 | 84 | 1014.2 |
| 20260508054004 | 10 | 96 | 0.0 | 1.6 | 0.00 | 0.53 | 0.00 | 84 | 1014.2 |
| 20260508053505 | 10 | 96 | 0.0 | 3.2 | 0.00 | 0.53 | 0.00 | 83 | 1014.1 |
| 20260508053005 | 10 | 96 | 1.6 | 4.8 | 0.00 | 0.53 | 0.00 | 84 | 1014.2 |
| 20260508052503 | 10 | 96 | 0.0 | 3.2 | 0.00 | 0.53 | 0.00 | 84 | 1014.1 |
| 20260508052004 | 10 | 96 | 0.0 | 1.6 | 0.00 | 0.53 | 0.00 | 83 | 1013.9 |
| 20260508051621 | 11 | 96 | 0.0 | 0.0 | 0.00 | 0.76 | 0.53 | 83 | 1014.0 |
| 20260508051100 | 11 | 96 | 0.0 | 0.0 | 0.00 | 0.76 | 0.53 | 82 | 1014.0 |
| 20260508050600 | 11 | 96 | 0.0 | 0.0 | 0.00 | 0.76 | 0.53 | 82 | 1014.0 |
| 20260508050100 | 11 | 96 | 0.0 | 1.6 | 0.00 | 0.76 | 0.53 | 82 | 1014.0 |
| 20260508045558 | 11 | 96 | 0.0 | 1.6 | 0.00 | 0.76 | 0.53 | 81 | 1013.9 |
| 20260508045058 | 11 | 96 | 0.0 | 1.6 | 0.00 | 0.76 | 0.53 | 81 | 1013.8 |
| 20260508044557 | 11 | 96 | 0.0 | 0.0 | 0.00 | 0.76 | 0.53 | 80 | 1013.7 |
| 20260508044056 | 11 | 96 | 0.0 | 0.0 | 0.00 | 0.76 | 0.53 | 79 | 1013.6 |
| 20260508043555 | 11 | 96 | 0.0 | 1.6 | 0.00 | 0.76 | 0.53 | 79 | 1013.5 |
| 20260508043056 | 11 | 96 | 0.0 | 1.6 | 0.00 | 0.76 | 0.53 | 78 | 1013.7 |
| 20260508042052 | 11 | 96 | 0.0 | 1.6 | 0.00 | 0.76 | 0.53 | 78 | 1013.5 |
| 20260508041553 | 11 | 96 | 0.0 | 1.6 | 0.00 | 0.79 | 0.53 | 78 | 1013.6 |
| 20260508041054 | 11 | 96 | 0.0 | 1.6 | 0.00 | 0.79 | 0.53 | 78 | 1013.5 |
| 20260508040553 | 11 | 96 | 0.0 | 4.8 | 0.00 | 0.79 | 0.53 | 78 | 1013.4 |
| 20260508040052 | 11 | 96 | 0.0 | 9.7 | 0.00 | 0.79 | 0.53 | 79 | 1013.5 |
| 20260508035552 | 11 | 96 | 1.6 | 9.7 | 0.00 | 0.79 | 0.53 | 78 | 1013.4 |
| 20260508035051 | 12 | 96 | 0.0 | 6.4 | 0.00 | 0.79 | 0.53 | 77 | 1013.5 |
| 20260508034551 | 12 | 96 | 1.6 | 6.4 | 0.00 | 0.79 | 0.53 | 76 | 1013.6 |
| 20260508034050 | 12 | 96 | 0.0 | 4.8 | 0.00 | 0.79 | 0.53 | 76 | 1013.5 |
| 20260508033549 | 12 | 96 | 0.0 | 3.2 | 0.00 | 0.79 | 0.53 | 75 | 1013.6 |
| 20260508033051 | 12 | 96 | 0.0 | 3.2 | 0.00 | 0.79 | 0.53 | 74 | 1013.6 |
| 20260508032049 | 12 | 96 | 3.2 | 6.4 | 0.00 | 0.79 | 0.53 | 73 | 1013.5 |
| 20260508031547 | 12 | 96 | 0.0 | 9.7 | 0.00 | 0.81 | 0.53 | 73 | 1013.7 |
| 20260508031047 | 13 | 96 | 1.6 | 6.4 | 0.00 | 0.81 | 0.53 | 72 | 1013.6 |
| 20260508030547 | 13 | 96 | 0.0 | 3.2 | 0.00 | 0.81 | 0.53 | 72 | 1013.6 |
| 20260508030048 | 13 | 96 | 0.0 | 3.2 | 0.00 | 0.81 | 0.53 | 71 | 1013.5 |
| 20260508025544 | 13 | 96 | 0.0 | 4.8 | 0.00 | 0.81 | 0.53 | 70 | 1013.4 |
| 20260508025043 | 13 | 96 | 0.0 | 11.3 | 0.00 | 0.81 | 0.53 | 70 | 1013.4 |
| 20260508024542 | 13 | 96 | 4.8 | 11.3 | 0.00 | 0.81 | 0.53 | 69 | 1013.2 |
| 20260508024042 | 13 | 96 | 1.6 | 6.4 | 0.00 | 0.81 | 0.53 | 69 | 1013.2 |
| 20260508023539 | 14 | 96 | 0.0 | 20.9 | 0.00 | 0.81 | 0.53 | 67 | 1013.1 |
| 20260508023039 | 14 | 96 | 3.2 | 20.9 | 0.00 | 0.81 | 0.53 | 65 | 1013.0 |
| 20260508022040 | 14 | 96 | 8.0 | 24.1 | 0.00 | 0.81 | 0.53 | 64 | 1012.9 |
| 20260508021547 | 14 | 96 | 9.7 | 24.1 | 0.00 | 0.84 | 0.53 | 65 | 1012.9 |
| 20260508021038 | 14 | 96 | 11.3 | 25.7 | 0.00 | 0.84 | 0.53 | 65 | 1012.8 |
| 20260508020538 | 14 | 96 | 11.3 | 37.0 | 0.00 | 0.84 | 0.53 | 65 | 1012.8 |
| 20260508020038 | 14 | 96 | 17.7 | 37.0 | 0.00 | 0.84 | 0.53 | 65 | 1012.8 |
| 20260508015536 | 14 | 96 | 11.3 | 22.5 | 0.00 | 0.84 | 0.53 | 66 | 1012.8 |
| 20260508015036 | 14 | 96 | 4.8 | 17.7 | 0.00 | 0.84 | 0.53 | 66 | 1012.6 |
| 20260508014535 | 14 | 96 | 3.2 | 17.7 | 0.00 | 0.84 | 0.53 | 67 | 1012.4 |
| 20260508014038 | 14 | 96 | 0.0 | 9.7 | 0.00 | 0.84 | 0.53 | 67 | 1012.5 |
| 20260508013535 | 14 | 96 | 1.6 | 11.3 | 0.00 | 0.84 | 0.53 | 67 | 1012.2 |
| 20260508013032 | 14 | 96 | 3.2 | 16.1 | 0.00 | 0.84 | 0.53 | 66 | 1012.3 |
| 20260508012032 | 15 | 96 | 3.2 | 25.7 | 0.00 | 0.84 | 0.53 | 65 | 1012.1 |
| 20260508011540 | 15 | 96 | 9.7 | 27.4 | 0.00 | 1.02 | 0.53 | 64 | 1011.9 |
| 20260508011033 | 15 | 96 | 14.5 | 35.4 | 0.00 | 1.02 | 0.53 | 65 | 1011.9 |
| 20260508010531 | 15 | 96 | 12.9 | 35.4 | 0.00 | 1.02 | 0.53 | 65 | 1011.7 |
| 20260508010039 | 14 | 96 | 19.3 | 35.4 | 0.00 | 1.02 | 0.53 | 65 | 1011.6 |
| 20260508005534 | 14 | 96 | 16.1 | 35.4 | 0.00 | 1.02 | 0.53 | 66 | 1011.5 |
| 20260508005031 | 14 | 96 | 16.1 | 33.8 | 0.00 | 1.02 | 0.53 | 65 | 1011.6 |
| 20260508004531 | 14 | 96 | 22.5 | 33.8 | 0.00 | 1.02 | 0.53 | 66 | 1011.6 |
| 20260508004032 | 14 | 96 | 12.9 | 20.9 | 0.00 | 1.02 | 0.53 | 67 | 1011.7 |
| 20260508003632 | 14 | 96 | 9.7 | 20.9 | 0.00 | 1.02 | 0.53 | 67 | 1011.7 |
| 20260508003030 | 15 | 96 | 6.4 | 37.0 | 0.00 | 1.02 | 0.53 | 66 | 1011.5 |
| 20260508002032 | 14 | 96 | 9.7 | 25.7 | 0.00 | 1.02 | 0.53 | 67 | 1011.2 |
| 20260508001530 | 14 | 96 | 11.3 | 37.0 | 0.00 | 1.35 | 0.53 | 67 | 1011.1 |
| 20260508001029 | 14 | 96 | 14.5 | 37.0 | 0.00 | 1.35 | 0.53 | 67 | 1011.0 |
| 20260508000529 | 14 | 96 | 14.5 | 43.5 | 0.00 | 1.35 | 0.53 | 67 | 1010.9 |
| 20260508000029 | 15 | 96 | 17.7 | 56.3 | 0.00 | 1.35 | 0.53 | 67 | 1010.9 |
| 20260507235531 | 15 | 97 | 24.1 | 56.3 | 0.00 | 1.35 | 0.53 | 67 | 1010.6 |
| 20260507235031 | 14 | 96 | 14.5 | 53.1 | 0.00 | 1.35 | 0.53 | 68 | 1010.6 |
| 20260507234527 | 15 | 96 | 32.2 | 53.1 | 0.00 | 1.35 | 0.53 | 68 | 1010.6 |
| 20260507234026 | 15 | 96 | 22.5 | 45.1 | 0.00 | 1.35 | 0.53 | 68 | 1010.8 |
| 20260507233626 | 15 | 97 | 14.5 | 48.3 | 0.00 | 1.35 | 0.53 | 68 | 1010.8 |
| 20260507233024 | 15 | 97 | 19.3 | 48.3 | 0.00 | 1.35 | 0.53 | 68 | 1010.7 |
| 20260507232023 | 15 | 96 | 20.9 | 41.8 | 0.00 | 1.35 | 0.53 | 69 | 1010.6 |
| 20260507231523 | 15 | 96 | 20.9 | 41.8 | 0.00 | 1.35 | 0.53 | 69 | 1010.7 |
| 20260507231023 | 15 | 96 | 19.3 | 48.3 | 0.00 | 1.35 | 0.53 | 70 | 1010.6 |
| 20260507230522 | 15 | 97 | 20.9 | 48.3 | 0.00 | 1.35 | 0.53 | 70 | 1010.8 |
| 20260507230035 | 15 | 96 | 25.7 | 45.1 | 0.00 | 1.35 | 0.53 | 70 | 1010.7 |
| 20260507225519 | 15 | 97 | 29.0 | 45.1 | 0.00 | 1.35 | 0.53 | 69 | 1010.6 |
| 20260507225019 | 15 | 96 | 24.1 | 43.5 | 0.00 | 1.35 | 0.53 | 69 | 1010.5 |
| 20260507224519 | 15 | 96 | 24.1 | 43.5 | 0.00 | 1.35 | 0.53 | 69 | 1010.5 |
| 20260507224018 | 16 | 96 | 20.9 | 37.0 | 0.00 | 1.35 | 0.53 | 69 | 1010.4 |
| 20260507223523 | 16 | 96 | 22.5 | 35.4 | 0.00 | 1.35 | 0.53 | 69 | 1010.4 |
| 20260507223023 | 16 | 96 | 16.1 | 35.4 | 0.00 | 1.35 | 0.53 | 69 | 1010.2 |
| 20260507222015 | 16 | 96 | 17.7 | 29.0 | 0.00 | 1.35 | 0.53 | 69 | 1009.9 |
| 20260507221514 | 16 | 96 | 11.3 | 32.2 | 0.00 | 1.35 | 0.53 | 70 | 1009.9 |
| 20260507221015 | 16 | 96 | 14.5 | 32.2 | 0.00 | 1.35 | 0.53 | 70 | 1009.8 |
| 20260507220515 | 16 | 96 | 11.3 | 35.4 | 0.00 | 1.35 | 0.53 | 70 | 1009.6 |
| 20260507220014 | 16 | 96 | 19.3 | 45.1 | 0.00 | 1.35 | 0.53 | 70 | 1009.5 |
| 20260507215513 | 16 | 96 | 30.6 | 48.3 | 0.00 | 1.35 | 0.53 | 69 | 1009.3 |
| 20260507215013 | 17 | 97 | 29.0 | 48.3 | 0.00 | 1.35 | 0.53 | 69 | 1009.1 |
| 20260507214512 | 17 | 96 | 24.1 | 43.5 | 0.00 | 1.35 | 0.53 | 69 | 1009.0 |
| 20260507214012 | 18 | 96 | 22.5 | 40.2 | 0.00 | 1.35 | 0.53 | 69 | 1008.6 |
| 20260507213511 | 18 | 96 | 20.9 | 40.2 | 0.00 | 1.35 | 0.53 | 68 | 1008.5 |
| 20260507213009 | 18 | 96 | 20.9 | 40.2 | 0.00 | 1.35 | 0.53 | 69 | 1008.5 |
| 20260507212017 | 18 | 96 | 22.5 | 37.0 | 0.00 | 1.35 | 0.53 | 69 | 1008.4 |
| 20260507211513 | 18 | 96 | 27.4 | 35.4 | 0.00 | 1.35 | 0.53 | 69 | 1008.4 |
| 20260507211011 | 18 | 96 | 19.3 | 35.4 | 0.00 | 1.35 | 0.53 | 68 | 1008.2 |
| 20260507210514 | 18 | 96 | 22.5 | 40.2 | 0.00 | 1.35 | 0.53 | 68 | 1008.2 |